Weather History for Nome, AK

Change the Weather History Date:

Friday, October 8, 2010

  Actual Average Record
Temperature  
Mean Temperature 35 °F 32 °F  
Max Temperature 39 °F 38 °F 53 °F (1953)
Min Temperature 31 °F 27 °F 11 °F (1918)
Degree Days  
Heating Degree Days 30 33  
Month to date heating degree days 216 248  
Since 1 July heating degree days 1578 1778  
Cooling Degree Days 0    
Month to date cooling degree days 0  
Year to date cooling degree days 2  
Moisture  
Dew Point 31 °F    
Average Humidity 0    
Maximum Humidity 0    
Minimum Humidity 0    
Precipitation  
Precipitation 0.09 in 0.06 in 0.72 in (1972)
Month to date precipitation 0.30 0.50  
Year to date precipitation 9.77 13.40  
Snow  
Snow 0.30 in 0.10 in 1.60 in (1958)
Month to date snowfall 0.3 0.6  
Since 1 July snowfall 0.3 1.2  
Since 1 September snowfall 0.3 1.2  
Snow Depth 0.00 in    
Sea Level Pressure  
Sea Level Pressure 29.68 in    
Wind  
Wind Speed 4 mph (ENE)    
Max Wind Speed 12 mph    
Max Gust Speed 14 mph    
Visibility 10 miles    
Events Rain , Snow    
T = Trace of Precipitation, MM = Missing Value Source: NWS Daily Summary

Daily Weather History Graph

Daily Weather History Graph

Search for Another Location

Airport:

Trip Planner

Search our weather history database for the weather conditions in past years. The results will help you decide how hot, cold, wet, or windy it might be!

Date:

Astronomy

Oct. 08, 2010 Rise Set
Actual Time 9:32 AM AKDT 8:04 PM AKDT
Civil Twilight 8:44 AM AKDT 8:52 PM AKDT
Nautical Twilight 7:47 AM AKDT 9:48 PM AKDT
Astronomical Twilight 6:48 AM AKDT 10:47 PM AKDT
Moon 12:02 PM AKDT (10/8) 7:10 PM AKDT (10/8)
Length of Visible Light 12h 08m
Length of Day
10h 31m
New Moon, 2% of the Moon is Illuminated
Oct 8
New Moon
Oct 14
First Quarter
Oct 22
Full
Oct 30
Last Quarter
Nov 5
New

Hourly Weather History & Observations

Time (AKDT) Temp. Windchill Dew Point Humidity Pressure Visibility Wind Dir Wind Speed Gust Speed Precip Events Conditions
12:53 AM 35.1 °F - 28.9 °F 78% 29.68 in 10.0 mi Calm Calm - N/A   Overcast
1:53 AM 34.0 °F - 28.9 °F 82% 29.68 in 10.0 mi Calm Calm - N/A   Overcast
2:53 AM 34.0 °F 31.0 °F 28.9 °F 82% 29.68 in 10.0 mi North 3.5 mph - N/A   Overcast
3:53 AM 33.1 °F - 28.9 °F 85% 29.68 in 10.0 mi Calm Calm - N/A   Overcast
4:53 AM 32.0 °F - 28.9 °F 88% 29.68 in 10.0 mi Calm Calm - N/A   Overcast
5:53 AM 33.1 °F 30.0 °F 28.0 °F 82% 29.68 in 10.0 mi North 3.5 mph - N/A   Overcast
6:53 AM 32.0 °F - 28.0 °F 85% 29.68 in 10.0 mi Calm Calm - N/A   Overcast
7:53 AM 30.9 °F - 28.0 °F 89% 29.68 in 10.0 mi Calm Calm - N/A   Overcast
8:53 AM 32.0 °F - 28.9 °F 88% 29.68 in 10.0 mi Calm Calm - N/A   Overcast
9:53 AM 33.1 °F 30.0 °F 28.9 °F 85% 29.69 in 10.0 mi NNE 3.5 mph - N/A   Overcast
10:08 AM 33.8 °F 30.8 °F 28.4 °F 81% 29.68 in 10.0 mi NE 3.5 mph - N/A   Overcast
10:18 AM 33.8 °F - 28.4 °F 81% 29.68 in 10.0 mi Calm Calm - N/A   Overcast
10:53 AM 35.1 °F 32.2 °F 28.9 °F 78% 29.69 in 10.0 mi NNE 3.5 mph - N/A   Overcast
11:17 AM 35.6 °F 32.8 °F 28.4 °F 75% 29.69 in 10.0 mi North 3.5 mph - N/A   Overcast
11:53 AM 37.0 °F 33.3 °F 28.9 °F 73% 29.69 in 10.0 mi East 4.6 mph - N/A   Overcast
12:53 PM 37.9 °F 32.7 °F 30.0 °F 73% 29.69 in 10.0 mi East 6.9 mph - N/A   Overcast
1:53 PM 39.0 °F 33.4 °F 30.9 °F 73% 29.69 in 10.0 mi SSE 8.1 mph - N/A   Overcast
2:00 PM 39.2 °F 35.0 °F 32.0 °F 75% 29.69 in 10.0 mi SSE 5.8 mph - N/A   Overcast
2:53 PM 39.0 °F 32.8 °F 32.0 °F 76% 29.69 in 10.0 mi SE 9.2 mph - N/A   Overcast
3:53 PM 39.0 °F 32.3 °F 33.1 °F 79% 29.68 in 10.0 mi SE 10.4 mph - N/A   Overcast
4:53 PM 36.0 °F 28.0 °F 33.1 °F 89% 29.68 in 10.0 mi SE 11.5 mph - 0.00 in Rain Light Rain
5:19 PM 35.6 °F 30.7 °F 33.8 °F 93% 29.68 in 7.0 mi SSE 5.8 mph - 0.01 in Snow Light Snow
5:28 PM 35.6 °F 32.8 °F 32.0 °F 87% 29.68 in 5.0 mi SSE 3.5 mph - 0.02 in Snow Light Snow
5:53 PM 36.0 °F 33.3 °F 32.0 °F 86% 29.68 in 10.0 mi North 3.5 mph - 0.03 in Rain Light Rain
6:53 PM 35.1 °F 32.2 °F 32.0 °F 89% 29.68 in 6.0 mi NNW 3.5 mph - 0.03 in Rain Light Rain
7:33 PM 35.6 °F 31.7 °F 33.8 °F 93% 29.67 in 10.0 mi North 4.6 mph - 0.03 in   Mostly Cloudy
7:53 PM 35.1 °F 32.2 °F 33.1 °F 92% 29.67 in 10.0 mi North 3.5 mph - 0.03 in   Mostly Cloudy
8:01 PM 35.6 °F - 33.8 °F 93% 29.67 in 10.0 mi Calm Calm - N/A   Overcast
8:15 PM 35.6 °F 32.8 °F 33.8 °F 93% 29.67 in 10.0 mi ENE 3.5 mph - N/A   Overcast
8:26 PM 35.6 °F 31.7 °F 33.8 °F 93% 29.67 in 10.0 mi SE 4.6 mph - N/A   Overcast
8:38 PM 33.8 °F - 32.0 °F 93% 29.67 in 10.0 mi Calm Calm - N/A   Overcast
8:46 PM 35.6 °F - 33.8 °F 93% 29.67 in 10.0 mi Calm Calm - N/A   Overcast
8:53 PM 34.0 °F - 33.1 °F 96% 29.67 in 10.0 mi Calm Calm - N/A   Overcast
9:53 PM 35.1 °F - 33.1 °F 92% 29.66 in 10.0 mi Calm Calm - N/A   Mostly Cloudy
10:04 PM 35.6 °F - 33.8 °F 93% 29.66 in 10.0 mi Calm Calm - N/A   Overcast
10:12 PM 35.6 °F - 33.8 °F 93% 29.66 in 10.0 mi Calm Calm - N/A   Overcast
10:53 PM 34.0 °F 31.0 °F 32.0 °F 92% 29.65 in 10.0 mi North 3.5 mph - N/A   Overcast
11:53 PM 34.0 °F - 30.9 °F 89% 29.65 in 10.0 mi Calm Calm - N/A   Overcast